[[{"header":{"parameterUnit":"m.s-1","parameterCategory":1,"la1":30.2991,"la2":30.254,"lo1":-89.0895,"lo2":-89.0444,"dy":0.0017,"dx":0.0017,"nx":28,"ny":28,"refTime":"2024-07-15T03:00:00:Z","depth":0,"parameterNumber":2,"parameterNumberName":"U-component_of_WINDS"},"data":[0,0,0,0,0,0,0,0,0,0,0,0,0,0,0,0,0,0,0,0,0,0,0,0,0,0,0,0,0,0,0,0,0,0,0,0,0,0,0,0,0,0,0,0,0,0,0,0,0,0,0,0,0,0,0,0,0,0,4.3019,4.3021,0,4.3196,4.3198,4.32,4.3149,4.3145,4.3142,4.3138,4.3323,4.3331,4.334,0,0,0,0,0,0,0,0,0,0,0,0,0,4.2637,4.2644,4.3019,4.3021,4.3023,4.3196,4.3198,4.3201,4.315,4.3145,4.3141,4.3137,4.3321,4.333,4.334,0,0,0,0,0,0,0,0,0,0,0,0,0,4.2808,4.2647,4.3018,4.3018,4.302,4.3196,4.3199,4.3202,4.3151,4.3145,4.314,4.3134,4.3317,4.3329,4.3342,4.3529,0,0,4.338,4.3385,0,0,0,0,0,0,0,0,4.2798,4.2822,4.3016,4.3019,4.3021,4.3145,4.3132,4.3311,4.3152,4.3101,4.3138,4.3132,4.3269,4.3285,4.333,4.3538,4.3546,4.3381,4.3389,4.3394,4.3398,0,0,0,0,0,0,0,4.2786,4.2814,4.3089,4.3019,4.3022,4.301,4.3028,4.3166,4.3214,4.3105,4.3102,4.3123,4.3269,4.3318,4.3334,4.3548,4.3381,4.3392,4.34,4.3404,4.3916,4.3922,0,0,0,0,0,0,4.2772,4.2804,4.3083,4.3094,4.2894,4.3021,4.3042,4.3111,4.3212,4.3222,4.3128,4.312,4.33,4.332,4.334,4.3564,4.3394,4.3406,4.3413,4.391,4.3917,4.3924,0,0,0,0,0,0,4.2764,4.2798,4.3076,4.2949,4.2983,4.3034,4.3112,4.3117,4.3166,4.3229,4.3238,4.3169,4.3296,4.3323,4.3482,4.357,4.3411,4.3423,4.3903,4.3912,4.392,4.4015,0,0,0,0,0,0,4.2754,4.2795,4.2867,4.2951,4.299,4.3214,4.3117,4.3125,4.3188,4.3179,4.327,4.328,4.3294,4.3463,4.3494,4.3585,4.3432,4.3895,4.3907,4.3918,4.4004,4.4026,4.4045,0,0,0,0,0,4.274,4.2888,4.2871,4.2905,4.308,4.322,4.3242,4.3254,4.3195,4.3267,4.3307,4.3277,4.3556,4.348,4.3514,4.361,4.3889,4.3903,4.3917,4.3995,4.4022,4.4045,0,0,0,0,0,0,4.2814,4.2899,4.2881,4.3059,4.3132,4.3211,4.3302,4.3283,4.3375,4.3364,4.3375,4.3396,4.3558,4.36,4.3514,4.3795,4.3714,4.3735,4.3762,4.3788,4.3808,4.3794,4.3443,0,0,0,0,0,4.2851,4.2957,4.3025,4.3176,4.3213,4.3252,4.3313,4.3315,4.3392,4.3423,4.3475,4.3551,4.3655,4.3724,4.3824,4.401,4.4028,4.4093,4.4113,4.413,4.4148,4.4247,4.4276,4.3969,4.3969,4.3968,0,0,4.2929,4.2988,4.3054,4.3192,4.3249,4.3358,4.3278,4.3397,4.3478,4.3442,4.3594,4.3634,4.372,4.3893,4.3972,4.3933,4.4236,4.4147,4.416,4.4169,4.4264,4.4293,4.4319,4.3978,4.3976,4.3975,0,0,4.3126,4.3182,4.3312,4.337,4.3457,4.3481,4.3513,4.3594,4.3619,4.3772,4.3746,4.3843,4.4023,4.4084,4.4139,4.4358,4.4333,4.439,4.4497,4.4593,4.4618,4.4639,4.4715,4.4743,4.4408,4.4408,4.4408,0,4.3212,4.3374,4.3382,4.3503,4.3564,4.3534,4.3667,4.3723,4.3839,4.3882,4.3836,4.406,4.4116,4.4302,4.4355,4.4401,4.4436,4.4379,4.4613,4.4635,4.4655,4.4728,4.4757,4.4414,4.4414,4.4413,4.4412,0,4.3474,4.3587,4.3683,4.3793,4.3865,4.3991,4.4019,4.4091,4.4087,4.4115,4.4271,4.4337,4.4448,4.4493,4.4491,4.4678,4.4651,4.461,4.4528,4.469,4.4759,4.4787,4.4423,4.4421,4.4419,4.4418,0,0,4.3723,4.3835,4.387,4.3918,4.4011,4.4099,4.4223,4.4331,4.4392,4.4472,4.4576,4.4729,4.469,4.4753,4.4757,4.4843,4.5009,4.4791,4.4793,4.4827,4.5217,4.5246,4.5278,4.4993,4.4999,4.5003,4.5209,0,4.3927,4.4144,4.4155,4.4353,4.4456,4.4429,4.4537,4.4606,4.4636,4.4729,4.4763,4.4869,4.4812,4.4849,4.4932,4.4971,4.5087,4.4957,4.509,4.5094,4.5067,4.5315,4.5347,4.5538,4.5236,4.5241,4.5244,0,4.4193,4.428,4.4488,4.4563,4.4607,4.4704,4.4803,4.4892,4.4969,4.4985,4.5053,4.5045,4.5173,4.5087,4.5262,4.5173,4.5228,4.5255,4.5263,4.5275,4.5178,4.5332,4.5599,4.5627,4.5287,4.5283,4.528,0,4.4352,4.4521,4.4666,4.4709,4.4802,4.487,4.4912,4.4983,4.5047,4.5133,4.5174,4.5275,4.533,4.5408,4.5427,4.5364,4.5602,4.5518,4.5618,4.5617,4.5668,4.5665,4.5947,4.5707,4.5706,4.5706,4.5705,0,4.4577,4.4705,4.4738,4.4828,4.497,4.498,4.5121,4.5158,4.5222,4.5318,4.5301,4.5392,4.5412,4.5507,4.5524,4.5665,4.569,4.5706,4.5709,4.5707,4.5705,4.5742,4.5729,4.5713,4.5712,4.571,4.5709,0,4.4778,4.4806,4.4962,4.5036,4.5058,4.5159,4.5222,4.5308,4.5336,4.5457,4.5487,4.553,4.5641,4.5667,4.58,4.5811,4.5977,4.5968,4.595,4.5949,4.6047,4.6036,4.6362,4.6405,4.6138,4.614,4.6143,0,4.492,4.5017,4.5101,4.5163,4.5207,4.5309,4.5373,4.5387,4.5454,4.5548,4.5622,4.573,4.5817,4.5995,4.6039,4.6139,4.6131,4.6239,4.6147,4.6141,4.6131,4.6124,4.6133,4.6256,4.6259,4.6261,4.6263,0,4.5167,4.5175,4.5267,4.5364,4.544,4.5517,4.5591,4.5644,4.5668,4.5744,4.5856,4.5923,4.6057,4.6164,4.6265,4.6308,4.629,4.6291,4.6319,4.6318,4.6303,4.631,4.5996,4.6284,4.6282,4.628,4.6279,4.6278,4.5341,4.5426,4.5497,4.56,4.5656,4.5725,4.5808,4.5845,4.5938,4.6047,4.605,4.6172,4.6245,4.6378,4.6427,4.6522,4.6489,4.653,4.654,4.655,4.6557,4.6289,4.6541,4.654,4.654,4.6539,4.6539,0,4.5586,4.563,4.5725,4.5827,4.5908,4.5882,4.5962,4.6031,4.6137,4.6206,4.6292,4.6419,4.6522,4.6574,4.6676,4.6742,4.6736,4.6768,4.6763,4.6773,4.6582,4.6546,4.6771,4.6771,4.6771,4.6771,4.6771,4.6771,4.5723,4.5863,4.588,4.6048,4.6091,4.6209,4.6256,4.6319,4.6374,4.6516,4.6602,4.6634,4.6695,4.6802,4.6895,4.6907,4.6945,4.6981,4.6989,4.681,4.6786,4.6764,4.673,4.699,4.699,4.7172,4.7173,4.7175]},{"header":{"parameterUnit":"m.s-1","parameterCategory":1,"la1":30.2991,"la2":30.254,"lo1":-89.0895,"lo2":-89.0444,"dy":0.0017,"dx":0.0017,"nx":28,"ny":28,"refTime":"2024-07-15T03:00:00:Z","depth":0,"parameterNumber":3,"parameterNumberName":"V-component_of_WINDS"},"data":[0,0,0,0,0,0,0,0,0,0,0,0,0,0,0,0,0,0,0,0,0,0,0,0,0,0,0,0,0,0,0,0,0,0,0,0,0,0,0,0,0,0,0,0,0,0,0,0,0,0,0,0,0,0,0,0,0,0,0.8445,0.8446,0,0.8534,0.8535,0.8536,0.8545,0.8544,0.8543,0.8542,0.8635,0.8638,0.8642,0,0,0,0,0,0,0,0,0,0,0,0,0,0.8284,0.8287,0.8445,0.8446,0.8448,0.8534,0.8535,0.8537,0.8545,0.8544,0.8543,0.8542,0.8634,0.8638,0.8642,0,0,0,0,0,0,0,0,0,0,0,0,0,0.8362,0.8288,0.8445,0.8462,0.8465,0.8534,0.8535,0.8537,0.8546,0.8544,0.8543,0.8542,0.8633,0.8638,0.8643,0.8701,0,0,0.8658,0.866,0,0,0,0,0,0,0,0,0.8357,0.8368,0.8459,0.8461,0.8464,0.8527,0.8513,0.8592,0.8546,0.8515,0.8542,0.8541,0.8601,0.8608,0.8628,0.8706,0.871,0.8658,0.8661,0.8663,0.8665,0,0,0,0,0,0,0,0.8352,0.8364,0.8481,0.846,0.8463,0.8466,0.8475,0.8528,0.8565,0.8518,0.8518,0.8529,0.8602,0.8623,0.863,0.8711,0.8658,0.8663,0.8666,0.8668,0.8841,0.8842,0,0,0,0,0,0,0.8343,0.8359,0.8478,0.8483,0.8406,0.847,0.8481,0.8508,0.8564,0.8571,0.853,0.8529,0.8615,0.8624,0.8633,0.8706,0.8663,0.8668,0.8671,0.8839,0.8841,0.8843,0,0,0,0,0,0,0.834,0.8354,0.8474,0.8422,0.8437,0.8474,0.8505,0.8511,0.8532,0.8573,0.858,0.8545,0.8614,0.8626,0.8684,0.8709,0.867,0.8675,0.8837,0.884,0.8842,0.8851,0,0,0,0,0,0,0.8335,0.8352,0.8375,0.8422,0.844,0.8523,0.8507,0.8514,0.8541,0.854,0.8589,0.8596,0.8614,0.8677,0.8689,0.8715,0.8679,0.8835,0.8838,0.8841,0.8848,0.8853,0.8857,0,0,0,0,0,0.8329,0.8374,0.8376,0.839,0.8469,0.8525,0.8535,0.8555,0.8542,0.8566,0.8592,0.8594,0.8704,0.8682,0.8697,0.8725,0.8834,0.8837,0.8841,0.8846,0.8852,0.8857,0,0,0,0,0,0,0.833,0.8381,0.8383,0.8445,0.848,0.8526,0.8556,0.856,0.86,0.8598,0.8622,0.8633,0.869,0.8713,0.8688,0.8784,0.8768,0.8774,0.8767,0.8773,0.8777,0.8771,0.8683,0,0,0,0,0,0.8337,0.8378,0.842,0.847,0.8488,0.8519,0.8544,0.8556,0.8594,0.8609,0.8639,0.8676,0.8719,0.8747,0.8789,0.8851,0.8862,0.8877,0.8882,0.8885,0.8891,0.8925,0.8933,0.8854,0.8854,0.8854,0,0,0.8353,0.8386,0.841,0.8471,0.85,0.8542,0.8531,0.8576,0.8608,0.8616,0.8672,0.8696,0.8739,0.8799,0.8827,0.882,0.8914,0.889,0.8892,0.8896,0.893,0.8937,0.8944,0.8857,0.8856,0.8856,0,0,0.8403,0.8432,0.8477,0.8505,0.8549,0.8569,0.8579,0.8624,0.864,0.8696,0.8703,0.8741,0.8814,0.8844,0.8869,0.8929,0.8933,0.8942,0.8966,0.8999,0.9005,0.9011,0.9032,0.904,0.8947,0.8948,0.8948,0,0.8417,0.848,0.8499,0.8544,0.8571,0.8579,0.8625,0.8652,0.8707,0.8725,0.8716,0.8808,0.8837,0.8904,0.8919,0.8939,0.8952,0.8937,0.9002,0.9008,0.9014,0.9035,0.9043,0.8948,0.8948,0.8948,0.8948,0,0.8496,0.8539,0.857,0.8623,0.8653,0.8698,0.8723,0.8752,0.8761,0.8782,0.8839,0.8874,0.8923,0.8939,0.8949,0.9008,0.9002,0.8998,0.8982,0.9022,0.9042,0.905,0.895,0.8949,0.8949,0.8949,0,0,0.8551,0.8611,0.8623,0.8646,0.8694,0.8728,0.8773,0.882,0.8844,0.8881,0.892,0.8981,0.8976,0.9005,0.9018,0.9047,0.9092,0.9039,0.904,0.9048,0.9159,0.9163,0.9172,0.9094,0.9096,0.9097,0.9156,0,0.8606,0.8687,0.8704,0.8774,0.8814,0.8822,0.8861,0.8895,0.8915,0.8952,0.8975,0.9018,0.9009,0.9026,0.9055,0.908,0.9115,0.9076,0.9131,0.9133,0.9121,0.9182,0.9187,0.9241,0.9164,0.9165,0.9166,0,0.8683,0.8721,0.8794,0.8836,0.8854,0.8888,0.8933,0.8968,0.9006,0.9019,0.905,0.9059,0.9106,0.9087,0.9153,0.9126,0.9149,0.9165,0.9167,0.9174,0.9152,0.9191,0.9258,0.9266,0.9178,0.9177,0.9177,0,0.8716,0.8785,0.8838,0.8858,0.8908,0.8932,0.8954,0.8991,0.9018,0.9056,0.9074,0.9117,0.9142,0.9175,0.9196,0.918,0.926,0.9243,0.9272,0.9272,0.929,0.9288,0.9362,0.9303,0.9303,0.9303,0.9303,0,0.8777,0.8822,0.8853,0.8886,0.8936,0.8956,0.9005,0.9027,0.9059,0.9096,0.9105,0.914,0.9165,0.9203,0.9219,0.9271,0.9282,0.9294,0.9298,0.9293,0.9292,0.931,0.9307,0.9305,0.9305,0.9304,0.9304,0,0.8823,0.8846,0.8904,0.8946,0.8958,0.8993,0.9029,0.9061,0.908,0.9127,0.9139,0.9171,0.9216,0.9239,0.9296,0.9307,0.9365,0.9367,0.9353,0.9354,0.9383,0.938,0.9471,0.9484,0.9416,0.9416,0.9417,0,0.8861,0.8895,0.894,0.8966,0.8988,0.9028,0.9055,0.9076,0.9104,0.9149,0.9175,0.9221,0.9258,0.933,0.9358,0.9401,0.9404,0.9433,0.9411,0.9405,0.9405,0.9403,0.9407,0.9437,0.9438,0.9439,0.9439,0,0.8926,0.8935,0.8974,0.9016,0.9048,0.9082,0.9117,0.9137,0.9162,0.9193,0.9239,0.9268,0.9325,0.937,0.9415,0.9438,0.9443,0.9445,0.9455,0.9451,0.9441,0.9447,0.9364,0.9444,0.9443,0.9443,0.9443,0.9442,0.8969,0.9,0.9037,0.9079,0.9106,0.9138,0.917,0.9193,0.9231,0.9279,0.9289,0.9337,0.9374,0.9435,0.9459,0.9497,0.9491,0.9505,0.9508,0.9511,0.9513,0.9434,0.9505,0.9505,0.9505,0.9505,0.9505,0,0.9035,0.9059,0.9097,0.9144,0.9178,0.9178,0.9215,0.9243,0.9286,0.9319,0.9355,0.9408,0.9451,0.9482,0.9526,0.9551,0.9554,0.9562,0.9561,0.9566,0.9515,0.9503,0.9559,0.9559,0.9559,0.9559,0.9559,0.9559,0.9073,0.9125,0.9139,0.9204,0.9227,0.9275,0.9296,0.9325,0.9352,0.941,0.9445,0.9465,0.9497,0.9544,0.9583,0.9591,0.9607,0.9615,0.9623,0.9575,0.957,0.9564,0.9553,0.9618,0.9618,0.9671,0.9672,0.9672]}]]